軌道要素
Epoch 2007 Dec. 6.0 TT = JDT 2454440.5
T 2007 Nov. 29.33531 TT MPC
q 3.1885473 (2000.0) P Q
z +0.0006527 Peri. 233.61411 +0.00366294 -0.55356316
+/-0.000000 Node 116.60348 -0.30877048 +0.79148439
e 0.9979189 Incl. 111.34427 -0.95112953 -0.25907584
From 430 observations 2006 May 18-2009 Nov. 20, mean residual 0".5.
|